Location: St. Louis
(38.6270°N, 90.1994°W)
Time: 01:52:16
(UTC-06:00)

Transit 4A - Pass Details

Date: 06 December 2021
Orbit: 863 x 981 km, 66.8° (Epoch: 24 January)

Event Time Altitude Azimuth Distance (km) Brightness Sun altitude
Rises 19:31:31 0° 238° (WSW) 3,452 11.7 -32.9°
Reaches altitude 10° 19:34:17 10° 249° (WSW) 2,530 10.9 -33.4°
Maximum altitude 19:39:21 30° 309° (NW) 1,558 9.4 -34.4°
Enters shadow 19:40:28 28° 329° (NNW) 1,625 9.3 -34.6°
Drops below altitude 10° 19:44:35 10° 10° (N) 2,604 - -35.4°
Sets 19:47:29 0° 21° (NNE) 3,570 - -36.0°
